Location: Champs
(48.8539°N, 2.6040°E)
Time: 09:35:32
(UTC+00:00)

USA 308 - Pass Details

Date: 31 May 2022
Orbit: 549 x 558 km, 54.0° (Epoch: 14 June)

Event Time Altitude Azimuth Distance (km) Brightness Sun altitude
Exits shadow 22:38:27 39° 168° (SSE) 835 3.2 -17.5°
Maximum altitude 22:39:07 43° 141° (SE) 789 3.1 -17.5°
Drops below altitude 10° 22:43:05 10° 70° (ENE) 1,845 5.5 -17.7°
Sets 22:45:24 0° 64° (ENE) 2,745 6.5 -17.8°
